User: anonymous   Login
Location: ????????
(55.6189°N, 38.3031°E)
Time: 15:13:01
(UTC+00:00)
Language:

Cosmos 2285 Rocket - Orbit

View from above orbital plane
View from above orbital plane
View from above satellite
View from above satellite

Ground track
Ground track

The orbit data is extracted from the following two-line orbital elements,

1 23190U 94045B   20017.82826139  .00000044  00000-0  70027-4 0  9994
2 23190  74.0303 337.1760 0018106  97.2192 263.0987 13.74086951276977
Epoch (UTC): 17 January 2020 19:52:41
Eccentricity: 0.0018106
inclination: 74.0303°
perigee height: 971 km
apogee height: 998 km
right ascension of ascending node: 337.1760°
argument of perigee: 97.2192°
revolutions per day: 13.74086951
mean anomaly at epoch: 263.0987°
orbit number at epoch: 27697

The dashed part of the orbit path shows where the satellite is in the earth's shadow,  

DLR